Shakopee, MN

10:22 PM CDT on July 24, 2017 (GMT -0500)
Against the Bluffs | | Change Station

Elev 735 ft 44.81 °N, 93.54 °W | Updated 13 minutes ago

Partly Cloudy
Partly Cloudy
68.7 °F
Feels Like 68.7 °F
N
0.0
Wind Variable Wind from SE
Gusts 1.0 mph

Today
High -- | Low -- °F
--% Chance of Precip.
Yesterday
High -- | Low -- °F
Precip. -- in
Pressure 30.01 in
Visibility 10.0 miles
Clouds Clear
Dew Point 63 °F
Humidity 83%
Rainfall 0.00 in
Snow Depth Not available.
5:51 AM 8:49 PM
Waxing Crescent, 4% visible
METAR KFCM 250253Z AUTO 14009KT 10SM CLR 21/16 A3001 RMK AO2 SLP161 T02110161 58001
Pressure 30.01 in
Visibility 10.0 miles
Clouds Clear
Dew Point 63 °F
Humidity 83%
Rainfall 0.00 in
Snow Depth Not available.
5:51 AM 8:49 PM
Waxing Crescent, 4% visible
METAR KFCM 250253Z AUTO 14009KT 10SM CLR 21/16 A3001 RMK AO2 SLP161 T02110161 58001

Get Severe Weather Alerts

Thanks for signing up!

Be on the lookout for a verification email in your inbox.

You'll start receiving the daily forecast at 6 AM.

×

10-Day Weather Forecast

Almanac

Astronomy

Jul. 24, 2017 Rise Set
Actual Time
Civil Twilight
Nautical Twilight
Astronomical Twilight
Moon
Length of Visible Light
Length of Day
Tomorrow will be .
, % of the Moon is Illuminated

Today's Extremes

State Highs State Lows

Community

WunderPhotos

Category 6

Welcome to Category 6. This is the collective home for Weather Underground's featured writeups by Dr. Jeff Masters (right), Bob Henson (left), Chris Burt, and other regular contributors.

Nearby

Air Quality

  Air Quality AQ Index Pollutant
Not available.

Snow Depth

Station Depth Elevation

Earthquake Activity

City Distance Mag. Time & Date
Minimum magnitude displayed is 2.5.

Coastal Water Temperatures

Place Temperature

Stations

Nearby Weather Stations

Station Location Temp. Windchill Dew Point Humidity Wind Precip. Elev Updated Type
                   

Watches & Warnings

There are currently no watches in effect.